North Las Vegas, NV

7:43 AM PDT on May 22, 2018 (GMT -0700)
North Las Vegas

Weather History for KVGT - May, 2013

Change the Weather History Date:

Saturday, May 11, 2013

  Actual Average Record
Temperature  
Mean Temperature 78 °F 75 °F  
Max Temperature 93 °F 86 °F 101 °F (2001)
Min Temperature 66 °F 63 °F 49 °F (2010)
Degree Days  
Heating Degree Days 0 0  
Month to date heating degree days 0  
Since 1 July heating degree days 2038  
Cooling Degree Days 14 10  
Month to date cooling degree days 91  
Year to date cooling degree days 218  
Growing Degree Days 28 (Base 50)    
Moisture  
Dew Point 31 °F    
Average Humidity 19    
Maximum Humidity 36    
Minimum Humidity 8    
Precipitation  
Precipitation 0.00 in 0.01 in 0.13 in (1958)
Month to date precipitation 0.06  
Year to date precipitation 2.52  
Sea Level Pressure  
Sea Level Pressure 30.10 in    
Wind  
Wind Speed 5 mph (SW)    
Max Wind Speed 9 mph    
Max Gust Speed 20 mph    
Visibility 10 miles    
Events      
T = Trace of Precipitation, MM = Missing Value Source: NWS Daily Summary

Daily Weather History Graph

Daily Weather History Graph

Search for Another Location

Airport or City:

Astronomy

May. 11, 2013 Rise Set
Actual Time 5:37 AM PDT 7:37 PM PDT
Civil Twilight 5:09 AM PDT 8:05 PM PDT
Nautical Twilight 4:34 AM PDT 8:40 PM PDT
Astronomical Twilight 3:57 AM PDT 9:17 PM PDT
Moon 6:49 AM PDT (5/11) 9:19 PM PDT (5/11)
Length of Visible Light 14h 56m
Length of Day
13h 59m
Waxing Crescent, 3% of the Moon is Illuminated
May 11
Waxing Crescent
May 17
First Quarter
May 24
Full
May 31
Last Quarter
Jun 8
New

Hourly Weather History & Observations

Time (PDT) Temp. Dew Point Humidity Pressure Visibility Wind Dir Wind Speed Gust Speed Precip Events Conditions
12:53 AM 75.0 °F 35.1 °F 23% 30.09 in 10.0 mi SSE 3.5 mph - N/A   Clear
1:53 AM 71.1 °F 37.9 °F 30% 30.09 in 10.0 mi West 3.5 mph - N/A   Clear
2:53 AM 68.0 °F 39.0 °F 35% 30.10 in 10.0 mi WNW 6.9 mph - N/A   Clear
3:53 AM 69.1 °F 37.0 °F 31% 30.09 in 10.0 mi WNW 8.1 mph - N/A   Clear
4:53 AM 69.1 °F 37.0 °F 31% 30.11 in 10.0 mi North 4.6 mph - N/A   Clear
5:53 AM 66.0 °F 37.9 °F 36% 30.13 in 10.0 mi Calm Calm - N/A   Clear
6:53 AM 70.0 °F 39.0 °F 32% 30.14 in 10.0 mi NW 4.6 mph - N/A   Clear
7:53 AM 73.9 °F 37.9 °F 27% 30.14 in 10.0 mi SSE 3.5 mph - N/A   Clear
8:53 AM 75.9 °F 37.0 °F 24% 30.16 in 10.0 mi Calm Calm - N/A   Clear
9:53 AM 80.1 °F 36.0 °F 20% 30.16 in 10.0 mi SW 3.5 mph - N/A   Clear
10:53 AM 84.9 °F 34.0 °F 16% 30.15 in 10.0 mi ESE 9.2 mph - N/A   Clear
11:53 AM 87.1 °F 33.1 °F 15% 30.14 in 10.0 mi SE 8.1 mph - N/A   Clear
12:53 PM 89.1 °F 30.0 °F 12% 30.13 in 10.0 mi ESE 3.5 mph - N/A   Clear
1:53 PM 89.1 °F 28.9 °F 12% 30.11 in 10.0 mi South 9.2 mph 19.6 mph N/A   Clear
2:53 PM 90.0 °F 25.0 °F 10% 30.08 in 10.0 mi SE 4.6 mph 19.6 mph N/A   Clear
3:53 PM 90.0 °F 23.0 °F 9% 30.06 in 10.0 mi Variable 3.5 mph - N/A   Clear
4:53 PM 91.0 °F 24.1 °F 9% 30.05 in 10.0 mi SSW 3.5 mph - N/A   Clear
5:53 PM 91.0 °F 21.0 °F 8% 30.04 in 10.0 mi SE 6.9 mph - N/A   Clear
6:53 PM 90.0 °F 21.0 °F 8% 30.04 in 10.0 mi Calm Calm - N/A   Clear
7:53 PM 88.0 °F 26.1 °F 11% 30.05 in 10.0 mi WSW 4.6 mph - N/A   Clear
8:53 PM 84.0 °F 28.0 °F 13% 30.06 in 10.0 mi SSW 3.5 mph - N/A   Clear
9:53 PM 80.1 °F 30.9 °F 17% 30.07 in 10.0 mi NNW 8.1 mph - N/A   Clear
10:53 PM 77.0 °F 28.0 °F 17% 30.07 in 10.0 mi NNW 6.9 mph - N/A   Clear
11:53 PM 75.9 °F 28.9 °F 18% 30.08 in 10.0 mi NW 5.8 mph - N/A   Clear